DateTimeUTC,F1_A11,F1_S11,BsB_S11,BsG_S11,BsR_S11,BbsB_S11,BbsG_S11,BbsR_S11,BaB_A11,BaG_A11,BaR_A11,Tu_S11,T_S11,Uu_S11,U_S11,P_S11,T1_A11
2021-07-23T21:00:00Z,00000200,20000000,,,,,,,-000.02,0000.28,0000.12,19.7,26.5,06.5,04.3,0666.1,31.2
2021-07-23T21:01:00Z,00000200,20000000,,,,,,,0000.00,-000.20,0000.09,19.6,26.5,06.5,04.3,0666.1,31.2
2021-07-23T21:02:00Z,00000200,20000000,,,,,,,0000.12,-000.34,-000.13,19.6,26.5,06.5,04.3,0666.1,31.2
2021-07-23T21:03:00Z,00000200,60000000,,,,,,,0000.04,0000.77,0000.41,19.6,26.5,06.5,04.3,0666.1,31.2
2021-07-23T21:04:00Z,00000200,40000000,0001.19,0001.23,0000.94,-000.09,0000.04,-000.13,0001.13,0000.57,0000.47,19.7,26.3,06.5,04.4,0667.1,31.2
2021-07-23T21:05:00Z,00000200,00000000,0001.39,0001.44,0000.97,0000.19,0000.35,0000.25,0000.03,-000.08,0000.64,19.8,26.2,06.6,04.5,0667.1,31.2
2021-07-23T21:06:00Z,00000200,00000000,0001.81,0001.52,0000.96,0000.32,0000.35,0000.18,0000.26,0000.90,-000.01,19.8,26.2,06.6,04.4,0667.1,31.2
2021-07-23T21:07:00Z,00000200,00000000,0001.69,0001.34,0000.62,0000.03,-000.13,0000.17,0001.00,0000.13,0000.35,19.8,26.2,06.7,04.5,0667.1,31.2
2021-07-23T21:08:00Z,00000200,00000000,0002.01,0001.23,0000.96,0000.17,0000.12,0000.43,0000.14,0000.53,0000.47,19.7,26.2,06.7,04.5,0667.1,31.2
2021-07-23T21:09:00Z,00000200,00000000,0001.99,0001.47,0000.95,-000.21,0000.15,0000.46,0000.91,0000.97,0000.25,19.8,26.2,06.8,04.6,0667.1,31.2
2021-07-23T21:10:00Z,00000200,00000000,0001.44,0001.45,0000.96,-000.12,0000.42,0000.09,0000.11,0000.08,0000.76,19.8,26.1,06.7,04.6,0667.1,31.2
2021-07-23T21:11:00Z,00000200,00000000,0001.58,0001.34,0000.48,0000.38,-000.04,0000.12,0000.54,0000.69,-000.03,19.7,26.1,06.9,04.7,0667.1,31.2
2021-07-23T21:12:00Z,00000200,00000000,0001.17,0001.08,0000.74,0000.67,0000.26,0000.13,0000.56,0000.07,0000.42,19.7,26.1,06.8,04.6,0667.1,31.2
2021-07-23T21:13:00Z,00000200,00000000,0002.47,0001.47,0001.07,0000.31,0000.36,0000.01,0000.47,0000.45,0000.56,19.7,26.1,06.8,04.6,0667.1,31.2
2021-07-23T21:14:00Z,00000200,00000000,0002.26,0001.44,0000.98,-000.45,0000.01,0000.03,0000.68,0000.80,0000.37,19.7,26.1,06.9,04.7,0667.1,31.2
2021-07-23T21:15:00Z,00000200,00000000,0001.93,0001.34,0000.67,0000.39,0000.13,0000.15,0000.49,0000.14,-000.11,19.7,26.1,06.9,04.7,0667.1,31.2
2021-07-23T21:16:00Z,00000200,00000000,0001.40,0000.91,0001.05,0000.51,-000.05,0000.14,0000.19,0000.61,0000.74,19.7,26.1,06.9,04.7,0667.1,31.2
2021-07-23T21:17:00Z,00000200,00000000,0001.40,0001.47,0000.43,0000.42,0000.15,-000.21,0000.28,0000.26,0000.32,19.7,26.1,06.9,04.7,0667.1,31.1
2021-07-23T21:18:00Z,00000200,00000000,0001.62,0001.28,0000.92,0000.27,0000.20,0000.18,0000.48,0000.46,-000.07,19.7,26.1,06.9,04.6,0667.1,31.2
2021-07-23T21:19:00Z,00000200,00000000,0002.24,0001.14,0001.08,-000.14,0000.04,0000.27,0000.49,0000.25,0000.42,19.7,26.1,06.8,04.6,0667.1,31.2
2021-07-23T21:20:00Z,00000200,00000000,0002.04,0001.63,0000.84,-000.15,0000.04,0000.35,0000.31,0000.20,0000.44,19.7,26.1,06.8,04.6,0667.1,31.1
2021-07-23T21:21:00Z,00000200,00000000,0000.91,0001.53,0000.84,0000.35,0000.15,0000.29,0000.38,0000.34,0000.23,19.7,26.1,06.8,04.6,0667.1,31.2
2021-07-23T21:22:00Z,00000200,00000000,0002.08,0001.32,0000.96,0000.08,-000.01,0000.16,0000.44,0000.73,0000.36,19.7,26.1,06.9,04.7,0667.1,31.2
2021-07-23T21:23:00Z,00000200,00000000,0001.14,0001.46,0000.80,0000.80,0000.06,0000.18,0000.64,0000.36,0000.34,19.7,26.1,07.0,04.7,0667.1,31.2
2021-07-23T21:24:00Z,00000200,00000000,0001.78,0001.35,0000.76,0000.24,-000.08,-000.15,0000.16,0000.17,-000.04,19.7,26.1,06.9,04.7,0667.1,31.2
2021-07-23T21:25:00Z,00000200,00000000,0001.40,0001.11,0000.77,0000.16,0000.03,0000.20,0000.24,0000.37,0000.55,19.7,26.0,06.9,04.7,0667.0,31.2
2021-07-23T21:26:00Z,00000200,00000000,0001.84,0001.27,0000.57,0000.14,0000.10,0000.06,0000.88,0000.57,0000.43,19.7,26.0,06.9,04.7,0667.0,31.2
2021-07-23T21:27:00Z,00000200,00000000,0002.10,0001.04,0000.73,-000.33,-000.00,0000.04,-000.08,0000.30,0000.09,19.6,26.0,07.0,04.7,0667.1,31.1
2021-07-23T21:28:00Z,00000200,00000000,0001.18,0001.06,0000.45,0000.05,0000.24,0000.08,0000.38,0000.31,0000.34,19.6,26.0,07.0,04.7,0667.1,31.2
2021-07-23T21:29:00Z,00000200,00000000,0001.39,0001.23,0000.93,-000.33,0000.03,-000.02,0000.68,0000.40,0000.21,19.6,26.0,06.9,04.7,0667.1,31.1
2021-07-23T21:30:00Z,00000200,00000000,0001.19,0000.89,0000.73,0000.34,-000.02,0000.32,0000.72,0000.23,0000.69,19.6,26.0,07.1,04.8,0667.1,31.1
2021-07-23T21:31:00Z,00000200,00000000,0000.61,0000.67,0000.17,0000.04,0000.02,-000.01,0000.17,0000.58,-000.01,19.6,26.0,07.2,04.9,0667.1,31.2
2021-07-23T21:32:00Z,00000200,00000000,0000.41,0000.33,0000.66,-000.07,-000.03,-000.03,0000.32,0000.04,-000.18,19.6,26.0,07.2,04.9,0667.1,31.1
2021-07-23T21:33:00Z,00000200,00000000,0001.39,0000.71,0000.45,0000.36,-000.15,0000.11,0000.27,0000.23,0000.59,19.6,26.0,07.1,04.9,0667.1,31.1
2021-07-23T21:34:00Z,00000200,00000000,0001.06,0000.71,0000.56,-000.15,-000.16,0000.16,-000.10,0000.32,0000.13,19.6,26.0,07.2,04.9,0667.1,31.2
2021-07-23T21:35:00Z,00000200,00000000,0000.60,0000.34,0000.39,-000.78,0000.18,0000.16,0000.40,0000.17,0000.24,19.6,26.0,07.3,04.9,0667.1,31.1
2021-07-23T21:36:00Z,00000200,00000000,0000.65,0000.71,0000.38,-000.20,0000.01,0000.05,0000.47,0000.33,-000.04,19.6,26.0,07.3,05.0,0667.1,31.1
2021-07-23T21:37:00Z,00000200,00000000,0000.25,0000.34,0000.22,0000.18,0000.01,-000.25,-000.10,-000.08,0000.31,19.6,25.9,07.3,05.0,0667.0,31.1
2021-07-23T21:38:00Z,00000200,00000000,0000.77,0000.72,0000.57,0000.16,0000.11,0000.07,0000.14,0000.44,0000.02,19.6,26.0,07.4,05.0,0667.0,31.1
2021-07-23T21:39:00Z,00000200,00000000,0000.00,0000.53,0000.30,-000.17,0000.04,-000.06,0000.49,0000.07,0000.28,19.6,26.0,07.4,05.0,0667.0,31.1
2021-07-23T21:40:00Z,00000200,00000000,0000.64,0000.48,0000.25,0000.51,-000.14,0000.11,-000.49,0000.24,0000.29,19.6,25.9,07.3,05.0,0667.0,31.2
2021-07-23T21:41:00Z,00000200,00000000,0000.86,0000.21,0000.11,-000.25,-000.06,-000.35,0000.62,-000.11,-000.30,19.5,25.9,07.4,05.0,0667.0,31.2
2021-07-23T21:42:00Z,00000200,00000000,0000.15,0000.50,0000.31,-000.38,-000.32,-000.29,-000.11,0000.23,0000.25,19.6,25.9,07.3,05.0,0667.0,31.1
2021-07-23T21:43:00Z,00000200,00000000,0000.12,0000.72,0000.47,0000.43,0000.53,-000.21,0000.22,-000.05,0000.20,19.5,25.9,07.4,05.0,0667.0,31.2
2021-07-23T21:44:00Z,00000200,00000000,0000.24,0000.61,0000.04,0000.16,-000.01,0000.09,0000.18,0000.14,0000.28,19.5,25.9,07.4,05.0,0667.0,31.1
2021-07-23T21:45:00Z,00000200,00000000,0000.35,0000.47,0000.48,-000.22,0000.12,0000.05,0000.44,0000.37,-000.07,19.5,25.9,07.4,05.0,0667.0,31.1
2021-07-23T21:46:00Z,00000200,00000000,0000.84,0000.59,0000.22,0000.23,-000.08,0000.11,0000.23,0000.32,-000.00,19.5,25.9,07.4,05.0,0667.0,31.1
2021-07-23T21:47:00Z,00000200,00000000,0000.51,0000.49,0000.67,-000.35,-000.06,0000.33,0000.44,0000.27,0000.60,19.5,25.9,07.4,05.0,0667.0,31.1
2021-07-23T21:48:00Z,00000200,00000000,0000.36,0000.32,0000.24,0000.05,-000.20,0000.29,0000.04,0000.13,0000.11,19.5,25.9,07.6,05.1,0667.0,31.1
2021-07-23T21:49:00Z,00000200,00000000,0000.77,0000.61,0000.38,0000.08,0000.08,-000.09,-000.05,0000.39,0000.01,19.5,25.9,07.6,05.2,0667.0,31.1
2021-07-23T21:50:00Z,00000200,00000000,0000.63,0000.35,0000.18,0000.24,-000.26,-000.23,0000.27,-000.16,0000.15,19.5,25.9,07.6,05.2,0667.0,31.1
2021-07-23T21:51:00Z,00000200,00000000,0000.62,0000.23,0000.49,0000.12,-000.05,0000.25,-000.22,-000.11,0000.02,19.5,25.9,07.5,05.1,0667.0,31.1
2021-07-23T21:52:00Z,00000200,00000000,0000.97,0000.65,0000.35,0000.10,0000.08,0000.08,0000.40,0000.37,0000.52,19.5,25.9,07.5,05.1,0667.0,31.1
2021-07-23T21:53:00Z,00000200,00000000,0000.83,0000.68,0000.42,-000.01,0000.14,0000.10,-000.20,0000.15,-000.26,19.5,25.8,07.6,05.1,0667.0,31.1
2021-07-23T21:54:00Z,00000200,00000000,0000.25,0000.83,0000.10,0000.35,-000.33,-000.19,0000.78,-000.09,0000.23,19.5,25.8,07.5,05.1,0667.0,31.2
2021-07-23T21:55:00Z,00000200,00000000,0000.96,0000.99,0000.64,0000.02,0000.01,0000.13,-000.08,0000.06,-000.01,19.5,25.8,07.6,05.2,0667.0,31.1
2021-07-23T21:56:00Z,00000200,00000000,0000.90,0000.44,0000.48,-000.76,0000.05,-000.01,-000.09,0000.32,-000.04,19.5,25.8,07.5,05.1,0667.0,31.1
2021-07-23T21:57:00Z,00000200,40000000,,,,,,,-000.28,-000.44,-000.07,19.5,25.9,07.4,05.0,0667.1,31.1
2021-07-23T21:58:00Z,00000200,60000000,,,,,,,0000.15,0000.34,-000.35,19.2,26.0,07.4,04.9,0666.0,31.1
2021-07-23T21:59:00Z,00000200,20000000,,,,,,,-000.10,-000.20,0000.28,19.2,26.1,07.3,04.8,0666.0,31.1
